Location: Baia de Cri?
(46.1667°N, 22.7167°E)
Time: 21:19:26
(UTC+00:00)

Cosmos 1932 - Pass Details

Date: 15 January 2026
Orbit: 920 x 1009 km, 65.0° (Epoch: 10 February)

Event Time Altitude Azimuth Distance (km) Brightness Sun altitude
Exits shadow 03:50:51 21° 217° (SW) 2,070 5.9 -23.2°
Maximum altitude 03:55:27 87° 305° (NW) 1,000 4.4 -22.4°
Drops below altitude 10° 04:02:01 10° 36° (NE) 2,785 7.2 -21.2°
Sets 04:04:38 0° 37° (NE) 3,744 7.9 -20.8°
